Wetterdaten: Woche 25.01.10 - 31.01.10 (KW4)
Datum Zeit Temp. Innen Temp. Aussen UV X Diff Temp. Feuchte Inne Feuchte Auss Sonnenschein Luftdruck Regen ab 0,1 Wind Sonnenschein Windben
25.01.2010 00:00 11,2 C 0,6 C 0,0 UV-I 0,0 C 50 % 95 % 0 % 1022,6 hPa 0,1 l/m 0,0 km/h (0 Bft) 0,00 h 0,0 km/h (0 Bft)
25.01.2010 01:00 11,2 C 0,5 C 0,0 UV-I 0,0 C 50 % 95 % 0 % 1022,6 hPa 0,0 l/m 0,0 km/h (0 Bft) 0,00 h 0,1 km/h (0 Bft)
25.01.2010 02:00 11,2 C 0,4 C 0,0 UV-I 0,0 C 50 % 95 % 0 % 1022,7 hPa 0,0 l/m 0,0 km/h (0 Bft) 0,00 h 0,4 km/h (0 Bft)
25.01.2010 03:00 11,2 C 0,3 C 0,0 UV-I 0,0 C 49 % 95 % 0 % 1023,1 hPa 0,0 l/m 0,0 km/h (0 Bft) 0,00 h 0,0 km/h (0 Bft)
25.01.2010 04:00 11,1 C 0,2 C 0,0 UV-I 0,0 C 49 % 95 % 0 % 1023,1 hPa 0,0 l/m 0,0 km/h (0 Bft) 0,00 h 0,0 km/h (0 Bft)
25.01.2010 05:00 11,1 C 0,1 C 0,0 UV-I 0,0 C 49 % 94 % 0 % 1023,3 hPa 0,1 l/m 0,1 km/h (0 Bft) 0,00 h 1,0 km/h (0 Bft)
25.01.2010 06:00 11,1 C -0,1 C 0,0 UV-I 0,0 C 49 % 94 % 0 % 1023,8 hPa 0,0 l/m 0,1 km/h (0 Bft) 0,00 h 0,5 km/h (0 Bft)
25.01.2010 07:00 11,0 C -0,4 C 0,0 UV-I 0,0 C 48 % 94 % 0 % 1023,9 hPa 0,0 l/m 0,4 km/h (0 Bft) 0,00 h 1,0 km/h (0 Bft)
25.01.2010 08:00 10,9 C -0,6 C 0,0 UV-I 0,0 C 48 % 94 % 0 % 1025,1 hPa 0,0 l/m 0,5 km/h (0 Bft) 0,00 h 1,8 km/h (1 Bft)
25.01.2010 09:00 10,8 C -0,8 C 0,0 UV-I 0,0 C 47 % 93 % 0 % 1025,7 hPa 0,0 l/m 0,6 km/h (0 Bft) 0,00 h 2,4 km/h (1 Bft)
25.01.2010 10:00 11,0 C -0,9 C 0,0 UV-I 0,0 C 47 % 92 % 0 % 1025,9 hPa 0,0 l/m 0,6 km/h (0 Bft) 0,00 h 1,9 km/h (1 Bft)
25.01.2010 11:00 11,1 C -0,9 C 0,0 UV-I 0,2 C 46 % 91 % 6 % 1027,6 hPa 0,0 l/m 0,5 km/h (0 Bft) 0,00 h 1,5 km/h (1 Bft)
25.01.2010 12:00 11,1 C -0,8 C 0,0 UV-I 0,0 C 45 % 90 % 0 % 1028,0 hPa 0,0 l/m 0,8 km/h (0 Bft) 0,00 h 2,0 km/h (1 Bft)
25.01.2010 13:00 11,1 C -1,0 C 0,0 UV-I 0,0 C 45 % 89 % 0 % 1028,0 hPa 0,0 l/m 1,2 km/h (1 Bft) 0,00 h 3,0 km/h (1 Bft)
25.01.2010 14:00 10,9 C -1,2 C 0,0 UV-I 0,0 C 44 % 89 % 0 % 1028,2 hPa 0,0 l/m 0,7 km/h (0 Bft) 0,00 h 2,3 km/h (1 Bft)
25.01.2010 15:00 10,8 C -1,3 C 0,0 UV-I 0,0 C 44 % 89 % 0 % 1028,2 hPa 0,0 l/m 0,5 km/h (0 Bft) 0,00 h 1,8 km/h (1 Bft)
25.01.2010 16:00 10,6 C -1,6 C 0,0 UV-I 0,0 C 44 % 89 % 0 % 1028,8 hPa 0,0 l/m 0,8 km/h (0 Bft) 0,00 h 2,5 km/h (1 Bft)
25.01.2010 17:00 10,4 C -1,8 C 0,0 UV-I 0,0 C 44 % 89 % 0 % 1029,6 hPa 0,0 l/m 0,9 km/h (0 Bft) 0,00 h 2,7 km/h (1 Bft)
25.01.2010 18:00 10,3 C -2,0 C 0,0 UV-I 0,0 C 44 % 88 % 0 % 1030,3 hPa 0,0 l/m 0,9 km/h (0 Bft) 0,00 h 2,7 km/h (1 Bft)
25.01.2010 19:00 10,2 C -2,1 C 0,0 UV-I 0,0 C 44 % 88 % 0 % 1030,7 hPa 0,0 l/m 0,8 km/h (0 Bft) 0,00 h 2,6 km/h (1 Bft)
25.01.2010 20:00 10,2 C -2,3 C 0,0 UV-I 0,0 C 44 % 87 % 0 % 1030,7 hPa 0,0 l/m 0,7 km/h (0 Bft) 0,00 h 2,0 km/h (1 Bft)
25.01.2010 21:00 10,0 C -2,3 C 0,0 UV-I 0,0 C 43 % 87 % 0 % 1030,7 hPa 0,0 l/m 0,8 km/h (0 Bft) 0,00 h 2,4 km/h (1 Bft)
25.01.2010 22:00 10,0 C -2,5 C 0,0 UV-I 0,0 C 43 % 87 % 0 % 1031,5 hPa 0,0 l/m 1,1 km/h (0 Bft) 0,00 h 3,3 km/h (1 Bft)
25.01.2010 23:00 10,0 C -2,6 C 0,0 UV-I 0,0 C 43 % 87 % 0 % 1032,4 hPa 0,0 l/m 1,0 km/h (0 Bft) 0,00 h 2,7 km/h (1 Bft)
26.01.2010 00:00 9,9 C -2,8 C 0,0 UV-I 0,0 C 43 % 87 % 0 % 1032,7 hPa 0,0 l/m 0,7 km/h (0 Bft) 0,00 h 2,2 km/h (1 Bft)
26.01.2010 01:00 9,8 C -3,1 C 0,0 UV-I 0,0 C 42 % 86 % 0 % 1033,0 hPa 0,0 l/m 1,1 km/h (1 Bft) 0,00 h 3,3 km/h (1 Bft)
26.01.2010 02:00 9,7 C -3,3 C 0,0 UV-I 0,0 C 42 % 86 % 0 % 1033,0 hPa 0,0 l/m 0,9 km/h (0 Bft) 0,00 h 2,1 km/h (1 Bft)
26.01.2010 03:00 9,6 C -3,4 C 0,0 UV-I 0,0 C 42 % 86 % 0 % 1033,0 hPa 0,0 l/m 0,7 km/h (0 Bft) 0,00 h 2,3 km/h (1 Bft)
26.01.2010 04:00 9,6 C -3,7 C 0,0 UV-I 0,0 C 42 % 86 % 0 % 1033,0 hPa 0,0 l/m 1,0 km/h (0 Bft) 0,00 h 2,1 km/h (1 Bft)
26.01.2010 05:00 9,6 C -4,0 C 0,0 UV-I 0,0 C 41 % 86 % 0 % 1033,0 hPa 0,0 l/m 1,2 km/h (1 Bft) 0,00 h 2,9 km/h (1 Bft)
26.01.2010 06:00 9,4 C -4,2 C 0,0 UV-I 0,0 C 41 % 86 % 0 % 1033,0 hPa 0,0 l/m 0,9 km/h (0 Bft) 0,00 h 2,5 km/h (1 Bft)
26.01.2010 07:00 9,2 C -5,1 C 0,0 UV-I 0,0 C 40 % 85 % 0 % 1033,0 hPa 0,0 l/m 0,8 km/h (0 Bft) 0,00 h 2,3 km/h (1 Bft)
26.01.2010 08:00 9,1 C -5,5 C 0,0 UV-I 0,0 C 40 % 86 % 0 % 1033,0 hPa 0,0 l/m 0,6 km/h (0 Bft) 0,00 h 1,7 km/h (1 Bft)
26.01.2010 09:00 9,0 C -6,3 C 0,0 UV-I 0,0 C 40 % 85 % 0 % 1033,0 hPa 0,0 l/m 0,8 km/h (0 Bft) 0,00 h 1,7 km/h (1 Bft)
26.01.2010 10:00 8,8 C -6,7 C 0,0 UV-I 1,7 C 39 % 85 % 48 % 1033,0 hPa 0,0 l/m 1,8 km/h (1 Bft) 0,30 h 3,1 km/h (1 Bft)
26.01.2010 11:00 9,0 C -5,6 C 0,0 UV-I 5,2 C 38 % 85 % 100 % 1033,0 hPa 0,0 l/m 0,8 km/h (0 Bft) 0,87 h 2,1 km/h (1 Bft)
26.01.2010 12:00 9,1 C -4,3 C 0,0 UV-I 5,0 C 38 % 82 % 100 % 1033,0 hPa 0,0 l/m 1,6 km/h (1 Bft) 0,73 h 3,1 km/h (1 Bft)
26.01.2010 13:00 9,5 C -3,6 C 0,1 UV-I 4,6 C 38 % 80 % 100 % 1033,0 hPa 0,1 l/m 1,8 km/h (1 Bft) 0,88 h 3,7 km/h (1 Bft)
26.01.2010 14:00 10,6 C -2,9 C 0,0 UV-I 3,8 C 36 % 78 % 99 % 1030,8 hPa 0,0 l/m 1,9 km/h (1 Bft) 1,00 h 3,9 km/h (1 Bft)
26.01.2010 15:00 11,2 C -2,8 C 0,0 UV-I 2,5 C 36 % 76 % 71 % 1030,6 hPa 0,0 l/m 1,4 km/h (1 Bft) 1,00 h 2,9 km/h (1 Bft)
26.01.2010 16:00 10,9 C -3,5 C 0,0 UV-I 0,1 C 36 % 77 % 2 % 1033,1 hPa 0,0 l/m 0,0 km/h (0 Bft) 0,00 h 0,6 km/h (0 Bft)
26.01.2010 17:00 9,9 C -4,4 C 0,0 UV-I 0,0 C 37 % 79 % 0 % 1033,7 hPa 0,0 l/m 0,0 km/h (0 Bft) 0,00 h 0,2 km/h (0 Bft)
26.01.2010 18:00 9,3 C -5,3 C 0,0 UV-I 0,0 C 37 % 80 % 0 % 1033,7 hPa 0,0 l/m 0,0 km/h (0 Bft) 0,00 h 0,1 km/h (0 Bft)
26.01.2010 19:00 9,1 C -6,0 C 0,0 UV-I 0,0 C 37 % 81 % 0 % 1033,7 hPa 0,0 l/m 0,0 km/h (0 Bft) 0,00 h 0,1 km/h (0 Bft)
26.01.2010 20:00 8,8 C -6,6 C 0,0 UV-I 0,0 C 37 % 82 % 0 % 1033,7 hPa 0,0 l/m 0,0 km/h (0 Bft) 0,00 h 0,0 km/h (0 Bft)
26.01.2010 21:00 8,7 C -7,0 C 0,0 UV-I 0,0 C 36 % 83 % 0 % 1033,7 hPa 0,0 l/m 0,1 km/h (0 Bft) 0,00 h 0,7 km/h (0 Bft)
26.01.2010 22:00 8,6 C -7,6 C 0,0 UV-I 0,0 C 36 % 84 % 0 % 1033,7 hPa 0,0 l/m 0,0 km/h (0 Bft) 0,00 h 0,0 km/h (0 Bft)
26.01.2010 23:00 8,5 C -8,0 C 0,0 UV-I 0,0 C 36 % 85 % 0 % 1033,7 hPa 0,0 l/m 0,0 km/h (0 Bft) 0,00 h 0,2 km/h (0 Bft)
27.01.2010 00:00 8,4 C -8,6 C 0,0 UV-I 0,0 C 36 % 86 % 0 % 1033,7 hPa 0,0 l/m 0,0 km/h (0 Bft) 0,00 h 0,0 km/h (0 Bft)
27.01.2010 01:00 8,3 C -9,2 C 0,0 UV-I 0,0 C 36 % 86 % 0 % 1033,7 hPa 0,0 l/m 0,0 km/h (0 Bft) 0,00 h 0,0 km/h (0 Bft)
27.01.2010 02:00 8,2 C -9,6 C 0,0 UV-I 0,0 C 36 % 87 % 0 % 1033,7 hPa 0,0 l/m 0,0 km/h (0 Bft) 0,00 h 0,0 km/h (0 Bft)
27.01.2010 03:00 8,1 C -9,9 C 0,0 UV-I 0,0 C 36 % 88 % 0 % 1033,7 hPa 0,0 l/m 0,0 km/h (0 Bft) 0,00 h 0,0 km/h (0 Bft)
27.01.2010 04:00 7,9 C -9,6 C 0,0 UV-I 0,0 C 36 % 89 % 0 % 1033,7 hPa 0,0 l/m 0,0 km/h (0 Bft) 0,00 h 0,2 km/h (0 Bft)
27.01.2010 05:00 8,0 C -9,0 C 0,0 UV-I 0,0 C 36 % 89 % 0 % 1033,7 hPa 0,0 l/m 0,0 km/h (0 Bft) 0,00 h 0,1 km/h (0 Bft)
27.01.2010 06:00 8,0 C -8,4 C 0,0 UV-I 0,0 C 36 % 90 % 0 % 1033,7 hPa 0,0 l/m 0,0 km/h (0 Bft) 0,00 h 0,0 km/h (0 Bft)
27.01.2010 07:00 8,0 C -8,0 C 0,0 UV-I 0,0 C 36 % 90 % 0 % 1033,7 hPa 0,0 l/m 0,0 km/h (0 Bft) 0,00 h 0,3 km/h (0 Bft)
27.01.2010 08:00 8,0 C -7,3 C 0,0 UV-I 0,0 C 37 % 90 % 0 % 1033,7 hPa 0,0 l/m 0,4 km/h (0 Bft) 0,00 h 1,1 km/h (1 Bft)
27.01.2010 09:00 8,1 C -6,3 C 0,0 UV-I 0,1 C 37 % 90 % 2 % 1033,7 hPa 0,0 l/m 0,0 km/h (0 Bft) 0,00 h 0,2 km/h (0 Bft)
27.01.2010 10:00 8,3 C -4,9 C 0,0 UV-I 1,0 C 38 % 89 % 29 % 1032,7 hPa 0,0 l/m 1,1 km/h (1 Bft) 0,00 h 3,9 km/h (1 Bft)
27.01.2010 11:00 8,6 C -3,3 C 0,0 UV-I 1,2 C 37 % 85 % 35 % 1030,6 hPa 0,0 l/m 1,9 km/h (1 Bft) 0,00 h 4,1 km/h (1 Bft)
27.01.2010 12:00 8,8 C -2,3 C 0,0 UV-I 0,7 C 37 % 80 % 21 % 1030,6 hPa 0,0 l/m 2,2 km/h (1 Bft) 0,00 h 4,7 km/h (1 Bft)
27.01.2010 13:00 8,9 C -1,8 C 0,0 UV-I 0,1 C 37 % 80 % 2 % 1030,6 hPa 0,0 l/m 1,8 km/h (1 Bft) 0,00 h 4,0 km/h (1 Bft)
27.01.2010 14:00 9,0 C -1,2 C 0,0 UV-I 0,0 C 37 % 77 % 1 % 1029,6 hPa 0,0 l/m 2,8 km/h (1 Bft) 0,00 h 6,1 km/h (2 Bft)
27.01.2010 15:00 9,0 C -0,8 C 0,0 UV-I 0,0 C 37 % 75 % 0 % 1022,7 hPa 0,0 l/m 4,4 km/h (1 Bft) 0,00 h 8,1 km/h (2 Bft)
27.01.2010 16:00 8,9 C -0,2 C 0,0 UV-I 0,0 C 37 % 70 % 0 % 1021,8 hPa 0,0 l/m 5,1 km/h (1 Bft) 0,00 h 8,4 km/h (2 Bft)
27.01.2010 17:00 8,8 C 0,1 C 0,0 UV-I 0,0 C 37 % 64 % 0 % 1020,3 hPa 0,0 l/m 6,2 km/h (2 Bft) 0,00 h 12,9 km/h (3 Bft)
27.01.2010 18:00 8,8 C 0,4 C 0,0 UV-I 0,0 C 36 % 62 % 0 % 1018,2 hPa 0,0 l/m 7,5 km/h (2 Bft) 0,00 h 13,0 km/h (3 Bft)
27.01.2010 19:00 8,8 C 0,3 C 0,0 UV-I 0,0 C 37 % 72 % 0 % 1016,1 hPa 0,0 l/m 8,0 km/h (2 Bft) 0,00 h 12,8 km/h (3 Bft)
27.01.2010 20:00 8,7 C -0,3 C 0,0 UV-I 0,0 C 41 % 85 % 0 % 1014,6 hPa 0,0 l/m 8,7 km/h (2 Bft) 0,00 h 14,0 km/h (3 Bft)
27.01.2010 21:00 8,6 C -0,5 C 0,0 UV-I 0,0 C 44 % 91 % 0 % 1013,6 hPa 0,0 l/m 9,5 km/h (2 Bft) 0,00 h 15,7 km/h (3 Bft)
27.01.2010 22:00 8,6 C -0,1 C 0,0 UV-I 0,0 C 46 % 93 % 0 % 1012,1 hPa 0,0 l/m 8,5 km/h (2 Bft) 0,00 h 14,3 km/h (3 Bft)
27.01.2010 23:00 8,8 C 0,4 C 0,0 UV-I 0,0 C 47 % 95 % 0 % 1011,5 hPa 0,0 l/m 6,2 km/h (2 Bft) 0,00 h 11,4 km/h (2 Bft)
28.01.2010 00:00 8,9 C 0,9 C 0,0 UV-I 0,0 C 49 % 95 % 0 % 1010,4 hPa 0,0 l/m 6,1 km/h (2 Bft) 0,00 h 10,6 km/h (2 Bft)
28.01.2010 01:00 9,0 C 1,3 C 0,0 UV-I 0,0 C 50 % 95 % 0 % 1007,9 hPa 0,0 l/m 4,3 km/h (1 Bft) 0,00 h 6,7 km/h (2 Bft)
28.01.2010 02:00 9,2 C 1,7 C 0,0 UV-I 0,0 C 51 % 96 % 0 % 1006,8 hPa 0,0 l/m 3,7 km/h (1 Bft) 0,00 h 6,5 km/h (2 Bft)
28.01.2010 03:00 9,2 C 2,1 C 0,0 UV-I 0,0 C 52 % 96 % 0 % 1006,7 hPa 0,0 l/m 5,0 km/h (1 Bft) 0,00 h 10,2 km/h (2 Bft)
28.01.2010 04:00 9,4 C 2,2 C 0,0 UV-I 0,0 C 52 % 94 % 0 % 1006,2 hPa 0,0 l/m 5,1 km/h (1 Bft) 0,00 h 9,7 km/h (2 Bft)
28.01.2010 05:00 9,4 C 2,0 C 0,0 UV-I 0,0 C 51 % 92 % 0 % 1006,5 hPa 0,1 l/m 3,4 km/h (1 Bft) 0,00 h 7,5 km/h (2 Bft)
28.01.2010 06:00 9,6 C 1,6 C 0,0 UV-I 0,0 C 52 % 93 % 0 % 1006,4 hPa 0,0 l/m 0,8 km/h (0 Bft) 0,00 h 0,8 km/h (0 Bft)
28.01.2010 07:00 9,6 C 1,6 C 0,0 UV-I 0,0 C 52 % 94 % 0 % 1005,9 hPa 0,0 l/m 2,6 km/h (1 Bft) 0,00 h 6,0 km/h (2 Bft)
28.01.2010 08:00 9,6 C 1,6 C 0,0 UV-I 0,0 C 52 % 93 % 0 % 1006,1 hPa 0,0 l/m 2,8 km/h (1 Bft) 0,00 h 5,1 km/h (1 Bft)
28.01.2010 09:00 9,6 C 1,7 C 0,2 UV-I 0,0 C 52 % 93 % 0 % 1005,7 hPa 0,0 l/m 3,6 km/h (1 Bft) 0,00 h 6,8 km/h (2 Bft)
28.01.2010 10:00 9,9 C 2,0 C 1,0 UV-I 1,1 C 52 % 93 % 31 % 1005,2 hPa 0,0 l/m 3,9 km/h (1 Bft) 0,03 h 6,6 km/h (2 Bft)
28.01.2010 11:00 10,2 C 2,5 C 1,3 UV-I 1,9 C 52 % 92 % 50 % 1003,9 hPa 0,0 l/m 4,1 km/h (1 Bft) 0,30 h 8,8 km/h (2 Bft)
28.01.2010 12:00 10,4 C 2,5 C 0,6 UV-I 0,1 C 51 % 92 % 4 % 1003,1 hPa 0,0 l/m 3,6 km/h (1 Bft) 0,00 h 6,9 km/h (2 Bft)
28.01.2010 13:00 10,9 C 3,0 C 1,3 UV-I 3,0 C 51 % 91 % 67 % 1001,2 hPa 0,0 l/m 4,1 km/h (1 Bft) 0,47 h 7,5 km/h (2 Bft)
28.01.2010 14:00 11,6 C 3,7 C 0,8 UV-I 2,4 C 49 % 88 % 68 % 997,4 hPa 0,1 l/m 5,6 km/h (1 Bft) 0,47 h 9,6 km/h (2 Bft)
28.01.2010 15:00 11,6 C 3,3 C 0,3 UV-I 0,1 C 48 % 88 % 2 % 998,3 hPa 0,0 l/m 5,1 km/h (1 Bft) 0,00 h 7,1 km/h (2 Bft)
28.01.2010 16:00 11,2 C 2,9 C 0,1 UV-I 0,0 C 49 % 88 % 0 % 999,2 hPa 0,0 l/m 6,2 km/h (2 Bft) 0,00 h 9,9 km/h (2 Bft)
28.01.2010 17:00 10,8 C 2,5 C 0,0 UV-I 0,0 C 49 % 89 % 0 % 1000,0 hPa 0,0 l/m 4,3 km/h (1 Bft) 0,00 h 7,0 km/h (2 Bft)
28.01.2010 18:00 10,6 C 2,1 C 0,0 UV-I 0,0 C 50 % 91 % 0 % 1000,4 hPa 0,0 l/m 3,7 km/h (1 Bft) 0,00 h 6,6 km/h (2 Bft)
28.01.2010 19:00 10,4 C 1,9 C 0,0 UV-I 0,0 C 51 % 92 % 0 % 1000,2 hPa 0,0 l/m 4,1 km/h (1 Bft) 0,00 h 8,1 km/h (2 Bft)
28.01.2010 20:00 10,3 C 1,9 C 0,0 UV-I 0,0 C 51 % 92 % 0 % 999,9 hPa 0,0 l/m 4,2 km/h (1 Bft) 0,00 h 6,9 km/h (2 Bft)
28.01.2010 21:00 10,3 C 2,0 C 0,0 UV-I 0,0 C 52 % 92 % 0 % 1000,1 hPa 0,0 l/m 4,9 km/h (1 Bft) 0,00 h 7,7 km/h (2 Bft)
28.01.2010 22:00 10,2 C 2,1 C 0,0 UV-I 0,0 C 52 % 92 % 0 % 999,5 hPa 0,0 l/m 4,4 km/h (1 Bft) 0,00 h 7,1 km/h (2 Bft)
28.01.2010 23:00 10,2 C 2,0 C 0,0 UV-I 0,0 C 53 % 93 % 0 % 998,9 hPa 0,0 l/m 2,6 km/h (1 Bft) 0,00 h 4,7 km/h (1 Bft)
29.01.2010 00:00 10,1 C 1,9 C 0,0 UV-I 0,0 C 53 % 93 % 0 % 997,8 hPa 0,0 l/m 2,8 km/h (1 Bft) 0,00 h 5,2 km/h (1 Bft)
29.01.2010 01:00 10,2 C 2,0 C 0,0 UV-I 0,0 C 53 % 93 % 0 % 996,7 hPa 0,0 l/m 4,2 km/h (1 Bft) 0,00 h 8,6 km/h (2 Bft)
29.01.2010 02:00 10,3 C 2,0 C 0,0 UV-I 0,0 C 53 % 93 % 0 % 995,7 hPa 0,0 l/m 3,3 km/h (1 Bft) 0,00 h 6,0 km/h (2 Bft)
29.01.2010 03:00 10,3 C 1,9 C 0,0 UV-I 0,0 C 53 % 94 % 0 % 994,6 hPa 0,2 l/m 3,3 km/h (1 Bft) 0,00 h 5,4 km/h (1 Bft)
29.01.2010 04:00 10,3 C 1,9 C 0,0 UV-I 0,0 C 53 % 94 % 0 % 993,1 hPa 0,0 l/m 3,6 km/h (1 Bft) 0,00 h 6,7 km/h (2 Bft)
29.01.2010 05:00 10,3 C 1,9 C 0,0 UV-I 0,0 C 53 % 94 % 0 % 991,9 hPa 0,0 l/m 3,8 km/h (1 Bft) 0,00 h 6,6 km/h (2 Bft)
29.01.2010 06:00 10,3 C 2,0 C 0,0 UV-I 0,0 C 53 % 94 % 0 % 990,5 hPa 0,3 l/m 3,6 km/h (1 Bft) 0,00 h 7,1 km/h (2 Bft)
29.01.2010 07:00 10,3 C 1,9 C 0,0 UV-I 0,0 C 53 % 94 % 0 % 989,2 hPa 0,6 l/m 5,4 km/h (1 Bft) 0,00 h 10,5 km/h (2 Bft)
29.01.2010 08:00 10,2 C 1,9 C 0,0 UV-I 0,0 C 54 % 94 % 0 % 987,9 hPa 0,8 l/m 4,3 km/h (1 Bft) 0,00 h 8,3 km/h (2 Bft)
29.01.2010 09:00 10,2 C 1,9 C 0,0 UV-I 0,0 C 54 % 94 % 0 % 986,6 hPa 0,9 l/m 4,2 km/h (1 Bft) 0,00 h 7,6 km/h (2 Bft)
29.01.2010 10:00 10,2 C 1,6 C 0,0 UV-I 0,0 C 54 % 94 % 0 % 985,3 hPa 0,9 l/m 5,2 km/h (1 Bft) 0,00 h 10,7 km/h (2 Bft)
29.01.2010 11:00 10,3 C 1,5 C 0,4 UV-I 0,0 C 54 % 95 % 0 % 983,7 hPa 0,6 l/m 6,0 km/h (2 Bft) 0,00 h 10,3 km/h (2 Bft)
29.01.2010 12:00 10,4 C 1,6 C 0,3 UV-I 0,0 C 54 % 95 % 0 % 982,0 hPa 0,1 l/m 7,6 km/h (2 Bft) 0,00 h 12,5 km/h (3 Bft)
29.01.2010 13:00 10,6 C 1,8 C 0,4 UV-I 0,0 C 54 % 95 % 0 % 980,8 hPa 0,3 l/m 7,2 km/h (2 Bft) 0,00 h 12,3 km/h (3 Bft)
29.01.2010 14:00 10,6 C 2,0 C 0,1 UV-I 0,0 C 54 % 95 % 0 % 979,9 hPa 0,5 l/m 6,5 km/h (2 Bft) 0,00 h 11,2 km/h (2 Bft)
29.01.2010 15:00 10,5 C 2,2 C 0,0 UV-I 0,2 C 54 % 94 % 6 % 979,2 hPa 0,6 l/m 5,8 km/h (2 Bft) 0,00 h 9,7 km/h (2 Bft)
29.01.2010 16:00 10,1 C 2,1 C 0,0 UV-I 0,0 C 55 % 93 % 0 % 979,3 hPa 0,9 l/m 5,0 km/h (1 Bft) 0,00 h 7,7 km/h (2 Bft)
29.01.2010 17:00 9,9 C 1,4 C 0,0 UV-I 0,0 C 54 % 93 % 0 % 979,7 hPa 0,1 l/m 3,3 km/h (1 Bft) 0,00 h 4,3 km/h (1 Bft)
29.01.2010 18:00 9,7 C 1,4 C 0,0 UV-I 0,0 C 55 % 94 % 0 % 980,2 hPa 0,0 l/m 2,7 km/h (1 Bft) 0,00 h 4,4 km/h (1 Bft)
29.01.2010 19:00 9,6 C 1,2 C 0,0 UV-I 0,0 C 54 % 94 % 0 % 981,0 hPa 0,0 l/m 3,5 km/h (1 Bft) 0,00 h 5,1 km/h (1 Bft)
29.01.2010 20:00 9,5 C 0,7 C 0,0 UV-I 0,0 C 54 % 93 % 0 % 981,8 hPa 0,1 l/m 2,6 km/h (1 Bft) 0,00 h 3,3 km/h (1 Bft)
29.01.2010 21:00 9,4 C 0,6 C 0,0 UV-I 0,0 C 54 % 93 % 0 % 982,4 hPa 0,0 l/m 2,0 km/h (1 Bft) 0,00 h 2,9 km/h (1 Bft)
29.01.2010 22:00 9,2 C 0,5 C 0,0 UV-I 0,0 C 53 % 93 % 0 % 982,9 hPa 0,0 l/m 2,7 km/h (1 Bft) 0,00 h 4,3 km/h (1 Bft)
29.01.2010 23:00 9,2 C 0,4 C 0,0 UV-I 0,0 C 53 % 93 % 0 % 983,4 hPa 0,0 l/m 3,2 km/h (1 Bft) 0,00 h 4,8 km/h (1 Bft)
30.01.2010 00:00 9,2 C 0,4 C 0,0 UV-I 0,0 C 53 % 93 % 0 % 983,8 hPa 0,0 l/m 2,5 km/h (1 Bft) 0,00 h 3,5 km/h (1 Bft)
30.01.2010 01:00 9,0 C 0,1 C 0,0 UV-I 0,0 C 52 % 93 % 0 % 983,7 hPa 0,0 l/m 3,3 km/h (1 Bft) 0,00 h 6,8 km/h (2 Bft)
30.01.2010 02:00 8,9 C 0,1 C 0,0 UV-I 0,0 C 52 % 93 % 0 % 984,0 hPa 0,0 l/m 3,6 km/h (1 Bft) 0,00 h 4,6 km/h (1 Bft)
30.01.2010 03:00 8,8 C 0,3 C 0,0 UV-I 0,0 C 52 % 93 % 0 % 984,0 hPa 0,0 l/m 4,7 km/h (1 Bft) 0,00 h 6,3 km/h (2 Bft)
30.01.2010 04:00 8,8 C 0,3 C 0,0 UV-I 0,0 C 54 % 93 % 0 % 983,2 hPa 0,0 l/m 4,2 km/h (1 Bft) 0,00 h 8,7 km/h (2 Bft)
30.01.2010 05:00 8,8 C 0,5 C 0,0 UV-I 0,0 C 54 % 94 % 0 % 983,3 hPa 0,0 l/m 4,8 km/h (1 Bft) 0,00 h 7,1 km/h (2 Bft)
30.01.2010 06:00 8,7 C 0,6 C 0,0 UV-I 0,0 C 54 % 94 % 0 % 984,1 hPa 0,0 l/m 4,6 km/h (1 Bft) 0,00 h 6,9 km/h (2 Bft)
30.01.2010 07:00 8,7 C 0,5 C 0,0 UV-I 0,0 C 54 % 94 % 0 % 985,3 hPa 0,0 l/m 2,7 km/h (1 Bft) 0,00 h 5,0 km/h (1 Bft)
30.01.2010 08:00 8,8 C 0,4 C 0,0 UV-I 0,0 C 54 % 94 % 0 % 986,4 hPa 0,0 l/m 2,2 km/h (1 Bft) 0,00 h 3,7 km/h (1 Bft)
30.01.2010 09:00 8,8 C 0,2 C 0,0 UV-I 0,0 C 53 % 94 % 0 % 987,7 hPa 0,0 l/m 2,4 km/h (1 Bft) 0,00 h 4,2 km/h (1 Bft)
30.01.2010 10:00 8,7 C 0,2 C 0,0 UV-I 0,0 C 52 % 93 % 0 % 988,9 hPa 3,3 l/m 2,2 km/h (1 Bft) 0,00 h 3,7 km/h (1 Bft)
30.01.2010 11:00 8,9 C 0,4 C 0,2 UV-I 3,0 C 52 % 93 % 61 % 990,2 hPa 0,1 l/m 2,8 km/h (1 Bft) 0,50 h 4,2 km/h (1 Bft)
30.01.2010 12:00 9,1 C 0,8 C 1,5 UV-I 4,2 C 51 % 92 % 86 % 991,4 hPa 0,0 l/m 3,3 km/h (1 Bft) 0,83 h 3,8 km/h (1 Bft)
30.01.2010 13:00 9,6 C 1,4 C 2,3 UV-I 5,5 C 50 % 90 % 96 % 992,2 hPa 0,0 l/m 4,2 km/h (1 Bft) 0,87 h 5,5 km/h (1 Bft)
30.01.2010 14:00 10,1 C 1,0 C 1,9 UV-I 2,6 C 47 % 87 % 66 % 994,2 hPa 0,0 l/m 4,0 km/h (1 Bft) 0,63 h 5,3 km/h (1 Bft)
30.01.2010 15:00 10,6 C 1,6 C 1,4 UV-I 5,2 C 45 % 85 % 100 % 994,8 hPa 0,0 l/m 2,2 km/h (1 Bft) 1,00 h 2,9 km/h (1 Bft)
30.01.2010 16:00 10,5 C 0,8 C 0,5 UV-I 1,2 C 43 % 84 % 28 % 995,1 hPa 0,0 l/m 1,6 km/h (1 Bft) 0,30 h 2,3 km/h (1 Bft)
30.01.2010 17:00 9,7 C -0,4 C 0,0 UV-I 0,0 C 44 % 84 % 0 % 995,1 hPa 0,0 l/m 0,0 km/h (0 Bft) 0,00 h 0,0 km/h (0 Bft)
30.01.2010 18:00 9,0 C -1,3 C 0,0 UV-I 0,0 C 45 % 86 % 0 % 995,7 hPa 0,0 l/m 0,0 km/h (0 Bft) 0,00 h 0,0 km/h (0 Bft)
30.01.2010 19:00 8,6 C -1,8 C 0,0 UV-I 0,0 C 46 % 86 % 0 % 996,0 hPa 0,0 l/m 0,1 km/h (0 Bft) 0,00 h 0,0 km/h (0 Bft)
30.01.2010 20:00 8,3 C -2,0 C 0,0 UV-I 0,0 C 46 % 87 % 0 % 996,1 hPa 0,0 l/m 0,7 km/h (0 Bft) 0,00 h 1,1 km/h (1 Bft)
30.01.2010 21:00 8,3 C -1,6 C 0,0 UV-I 0,0 C 46 % 88 % 0 % 996,4 hPa 0,0 l/m 2,7 km/h (1 Bft) 0,00 h 2,9 km/h (1 Bft)
30.01.2010 22:00 8,3 C -1,2 C 0,0 UV-I 0,0 C 47 % 88 % 0 % 996,2 hPa 0,0 l/m 5,5 km/h (1 Bft) 0,00 h 4,7 km/h (1 Bft)
30.01.2010 23:00 8,2 C -1,1 C 0,0 UV-I 0,0 C 49 % 89 % 0 % 996,3 hPa 0,0 l/m 3,3 km/h (1 Bft) 0,00 h 2,4 km/h (1 Bft)
31.01.2010 00:00 8,3 C -0,7 C 0,0 UV-I 0,0 C 50 % 90 % 0 % 996,5 hPa 0,0 l/m 2,9 km/h (1 Bft) 0,00 h 3,3 km/h (1 Bft)
31.01.2010 01:00 8,4 C -0,4 C 0,0 UV-I 0,0 C 51 % 91 % 0 % 996,6 hPa 0,0 l/m 1,9 km/h (1 Bft) 0,00 h 2,3 km/h (1 Bft)
31.01.2010 02:00 8,5 C 0,1 C 0,0 UV-I 0,0 C 52 % 91 % 0 % 996,7 hPa 0,0 l/m 1,7 km/h (1 Bft) 0,00 h 2,0 km/h (1 Bft)
31.01.2010 03:00 8,6 C 0,5 C 0,0 UV-I 0,0 C 54 % 92 % 0 % 997,2 hPa 0,0 l/m 1,9 km/h (1 Bft) 0,00 h 2,5 km/h (1 Bft)
31.01.2010 04:00 8,7 C 0,6 C 0,0 UV-I 0,0 C 54 % 92 % 0 % 997,5 hPa 0,0 l/m 3,8 km/h (1 Bft) 0,00 h 3,6 km/h (1 Bft)
31.01.2010 05:00 8,6 C 0,7 C 0,0 UV-I 0,0 C 54 % 93 % 0 % 998,0 hPa 0,0 l/m 5,2 km/h (1 Bft) 0,00 h 5,3 km/h (1 Bft)
31.01.2010 06:00 8,6 C 0,8 C 0,0 UV-I 0,0 C 55 % 93 % 0 % 998,3 hPa 0,0 l/m 6,0 km/h (2 Bft) 0,00 h 5,9 km/h (2 Bft)
31.01.2010 07:00 8,7 C 0,5 C 0,0 UV-I 0,0 C 54 % 93 % 0 % 998,6 hPa 1,3 l/m 4,3 km/h (1 Bft) 0,00 h 3,9 km/h (1 Bft)
31.01.2010 08:00 8,4 C 0,1 C 0,0 UV-I 0,0 C 54 % 93 % 0 % 999,5 hPa 0,0 l/m 5,8 km/h (2 Bft) 0,00 h 5,5 km/h (1 Bft)
31.01.2010 09:00 8,4 C 0,1 C 0,0 UV-I 0,0 C 53 % 93 % 0 % 999,9 hPa 0,0 l/m 7,3 km/h (2 Bft) 0,00 h 6,0 km/h (2 Bft)
31.01.2010 10:00 8,5 C 0,6 C 0,0 UV-I 2,7 C 53 % 93 % 74 % 1000,4 hPa 0,0 l/m 7,3 km/h (2 Bft) 0,80 h 5,8 km/h (2 Bft)
31.01.2010 11:00 8,7 C 1,4 C 0,6 UV-I 5,2 C 52 % 91 % 100 % 1000,8 hPa 0,0 l/m 7,8 km/h (2 Bft) 1,00 h 6,8 km/h (2 Bft)
31.01.2010 12:00 9,0 C 1,9 C 1,9 UV-I 3,2 C 51 % 89 % 72 % 1001,1 hPa 0,0 l/m 8,4 km/h (2 Bft) 0,43 h 7,2 km/h (2 Bft)
31.01.2010 13:00 9,5 C 2,2 C 2,1 UV-I 2,9 C 50 % 87 % 70 % 1001,6 hPa 0,0 l/m 8,2 km/h (2 Bft) 0,43 h 7,2 km/h (2 Bft)
31.01.2010 14:00 9,9 C 2,1 C 1,3 UV-I 1,1 C 49 % 86 % 31 % 1002,1 hPa 0,0 l/m 7,9 km/h (2 Bft) 0,13 h 6,5 km/h (2 Bft)
31.01.2010 15:00 9,7 C 1,8 C 0,4 UV-I 0,0 C 49 % 86 % 0 % 1001,7 hPa 0,0 l/m 7,1 km/h (2 Bft) 0,00 h 6,0 km/h (2 Bft)
31.01.2010 16:00 9,5 C 1,7 C 0,3 UV-I 0,1 C 49 % 86 % 4 % 1001,8 hPa 0,0 l/m 5,7 km/h (1 Bft) 0,00 h 5,4 km/h (1 Bft)
31.01.2010 17:00 9,2 C 1,4 C 0,0 UV-I 0,0 C 49 % 86 % 0 % 1001,9 hPa 0,0 l/m 4,8 km/h (1 Bft) 0,00 h 4,4 km/h (1 Bft)
31.01.2010 18:00 9,0 C 0,8 C 0,0 UV-I 0,0 C 50 % 87 % 0 % 1002,5 hPa 0,0 l/m 5,0 km/h (1 Bft) 0,00 h 4,2 km/h (1 Bft)
31.01.2010 19:00 8,8 C 0,3 C 0,0 UV-I 0,0 C 52 % 89 % 0 % 1002,8 hPa 0,0 l/m 3,2 km/h (1 Bft) 0,00 h 3,2 km/h (1 Bft)
31.01.2010 20:00 8,7 C 0,3 C 0,0 UV-I 0,0 C 52 % 89 % 0 % 1003,0 hPa 0,0 l/m 3,4 km/h (1 Bft) 0,00 h 3,2 km/h (1 Bft)
31.01.2010 21:00 8,7 C 0,6 C 0,0 UV-I 0,0 C 52 % 89 % 0 % 1003,2 hPa 0,0 l/m 7,0 km/h (2 Bft) 0,00 h 7,8 km/h (2 Bft)
31.01.2010 22:00 8,6 C 0,5 C 0,0 UV-I 0,0 C 51 % 89 % 0 % 1003,2 hPa 0,0 l/m 8,0 km/h (2 Bft) 0,00 h 7,7 km/h (2 Bft)
31.01.2010 23:00 8,8 C 0,3 C 0,0 UV-I 0,0 C 51 % 89 % 0 % 1003,6 hPa 0,0 l/m 6,2 km/h (2 Bft) 0,00 h 5,6 km/h (1 Bft)
Min-Datum _ 27.01.10 27.01.10 25.01.10 25.01.10 26.01.10 27.01.10 25.01.10 29.01.10 - 25.01.10 - 25.01.10
_ Min-Zeit 03:50 03:24 00:00 00:00 14:34 18:46 00:00 15:33 - 00:00 - 00:00
Minimum _ 7,9 C -10,0 C 0,0 UV-I 0,0 C 35 % 61 % 0 % 978,9 hPa - 0,0 km/h (0 Bft) - 0,0 km/h (0 Bft)
Max-Datum _ 28.01.10 28.01.10 30.01.10 30.01.10 29.01.10 28.01.10 26.01.10 26.01.10 30.01.10 27.01.10 26.01.10 28.01.10
_ Max-Zeit 14:44 14:38 12:44 13:00 15:18 02:04 10:56 16:12 10:50 21:36 10:40 03:12
Maximum _ 11,9 C 3,9 C 2,8 UV-I 6,7 C 55 % 96 % 100 % 1033,7 hPa 3,3 l/m 10,3 km/h
W (2 Bft)
0,03 h 30,8 km/h
W-SW (5 Bft)
Durchschnitt _ 9,5 C -0,8 C 0,1 UV-I 0,4 C 47 % 89 % 10 % 1009,5 hPa #11,7 l/m 3,0 km/h (1 Bft) #12:59 h 4,7 km/h (1 Bft)
© 2012 W. Hausmann